カタログに戻る

STARLINK-31572

運用中通信VLEO
NORAD 59333·PAYLOAD·🇺🇸 United States

打ち上げ Mar 25, 2024 から Cape Canaveral Space Force Station

Loading…

次のパス (今後24時間)

TLE

最新Source: CelesTrak SupGP

元期: Sep 15, 2026, 01:50 UTC

1 59333C 24057P   26258.07687500 -.00060695  00000+0 -21985-2 0  2589
2 59333  42.9996 208.8460 0001331 268.8463  45.6801 15.27607243    19

AllMySatでSTARLINK-31572をリアルタイム追跡

Download on the App Store